Regional Weather Roundup
Issued by NWS

Home | Current Version | Previous Version | Text Only | Print | Product List | Glossary Off
Versions: 1 2 3 4 5 6 7 8 9 10 11 12 13 14 15 16 17 18 19 20 21 22 23 24 25 26 27 28 29 30 31 32 33 34 35 36 37 38 39 40 41 42 43 44 45 46 47 48 49 50

000
ASUS43 KDMX 271707
RWRIA

WEATHER ROUNDUP FOR IOWA
NATIONAL WEATHER SERVICE DES MOINES IA
1200 PM CDT THU AUG 27 2015

NOTE: "FAIR" INDICATES FEW OR NO CLOUDS BELOW 12,000 FEET WITH NO
SIGNIFICANT WEATHER AND/OR OBSTRUCTIONS TO VISIBILITY.

* - THESE STATIONS ARE NOT NWS STATIONS...THUS NOT UNDER NWS
QUALITY CONTROL.  THEY ALSO DO NOT REPORT WEATHER SUCH
AS PRECIPITATION OR FOG.

IAZ001>003-012>014-020>022-031>034-043>046-271800-
   NORTHWEST IOWA

CITY           SKY/WX    TMP DP  RH WIND       PRES   REMARKS
CARROLL *      CLOUDY    61  59  94 SE8G17    30.07F
CHEROKEE *     CLOUDY    64  61  88 S15G22    30.02F
DENISON *      SUNNY     64  61  88 S12       30.04F
LE MARS *      SUNNY     68  63  83 S16G24    30.03R
ORANGE CITY *  LGT RAIN  66  63  88 S15       30.00S
SHELDON *      SUNNY     68  64  88 VRB6G13   30.02R
SIOUX CITY     CLOUDY    70  60  70 SE20G30   30.02R
SPENCER        CLOUDY    69  62  78 S10       30.01S
STORM LAKE *   SUNNY     63  57  82 S16G24    30.06R
$$

IAZ055>058-069>071-079>083-090>094-271800-
   SOUTHWEST IOWA

CITY           SKY/WX    TMP DP  RH WIND       PRES   REMARKS
ATLANTIC *     SUNNY     64  61  88 SE6       30.12S
AUDUBON *      LGT RAIN  63  57  82 S15       30.09F
CLARINDA *     SUNNY     68  61  77 S10       30.12R
COUNCIL BLFS * PTSUNNY   70  61  73 SE16G23   30.08S
CRESTON *      CLOUDY    63  59  88 SE16G24   30.10F
HARLAN  *      SUNNY     64  64 100 S9        30.12F
LAMONI         CLOUDY    65  59  81 SE7       30.16F
RED OAK *      MOSUNNY   70  63  78 S12       30.08F
SHENANDOAH *   CLOUDY    70  61  73 SE18      30.09R
$$

IAZ047>049-059>061-072>074-084-271800-
   CENTRAL IOWA

CITY           SKY/WX    TMP DP  RH WIND       PRES   REMARKS
AMES           CLOUDY    62  59  90 E6        30.15F
ANKENY *       SUNNY     64  59  82 S6        30.15F
CHARITON *     SUNNY     68  59  73 S6        30.18F
DES MOINES     CLOUDY    67  57  70 SE7       30.15F
GRINNELL*      CLOUDY    66  59  77 S5        30.20S
KNOXVILLE *    SUNNY     68  61  77 S5        30.18S
MARSHALLTOWN   CLOUDY    68  59  73 S9        30.17S
PELLA *        CLOUDY    68  64  88 S3        30.21R
PERRY *        LGT RAIN  63  59  88 SE8       30.11F
$$

IAZ004>006-015-016-023>025-035-036-271800-
   NORTH CENTRAL IOWA

CITY           SKY/WX    TMP DP  RH WIND       PRES   REMARKS
ALGONA *       SUNNY     64  57  77 SE17G25   30.00F
CLARION *      SUNNY     61  57  88 S16       30.06F
ESTHERVILLE    CLOUDY    64  59  83 S12       30.04R
FORT DODGE *   CLOUDY    61  54  77 SE17G30   29.99F
MASON CITY     CLOUDY    69  59  70 S14       30.11F
FOREST CITY *  SUNNY     68  55  64 SE15G22   30.07F
IOWA FALLS *     N/A     66  59  77 S7        30.15F
$$

IAZ007>011-017>019-026>030-037>042-050>054-066-271800-
   NORTHEAST IOWA

CITY           SKY/WX    TMP DP  RH WIND       PRES   REMARKS
CEDAR RAPIDS   CLOUDY    68  61  78 S6        30.19R
CHARLES CITY * SUNNY     70  61  73 S13       30.17S
CLINTON *      MOSUNNY   72  57  60 S7        30.22S
DECORAH *      MOSUNNY   70  57  64 SW8       30.16F
DUBUQUE        MOSUNNY   71  60  68 SW10      30.20R
MONTICELLO *   SUNNY     72  61  68 S8        30.19S
OELWEIN *      PTSUNNY   70  59  68 SW8       30.19S
WATERLOO       CLOUDY    71  58  63 S10       30.17R
$$

IAZ064-065-067-068-078-271800-
   EAST CENTRAL IOWA

CITY           SKY/WX    TMP DP  RH WIND       PRES   REMARKS
DAVENPORT      PTSUNNY   71  58  63 VRB3      30.21R
IOWA CITY      CLOUDY    69  60  73 SE6       30.20R
MT. PLEASANT * CLOUDY    73  55  53 S3        30.20S
MUSCATINE *    SUNNY     72  57  60 S8        30.20S
QUAD CITIES    PTSUNNY   72  58  61 SW5       30.19R
$$

IAZ062-063-075>077-085>089-095>099-271800-
   SOUTHEAST IOWA

CITY           SKY/WX    TMP DP  RH WIND       PRES   REMARKS
BURLINGTON     CLOUDY    70  59  68 SE5       30.20R
FAIRFIELD *    SUNNY     70  57  64 S7        30.19S
FORT MADISON * SUNNY     70  61  73 S5        30.21R
KEOKUK *       SUNNY     72  59  64 VRB6      30.20R
OSKALOOSA *      N/A     70  59  68 SW6       30.21R
CENTERVILLE *  SUNNY     70  59  68 SW8       30.22R
OTTUMWA        CLOUDY    70  60  70 S7        30.19R
WASHINGTON *     N/A    N/A N/A N/A MISG        N/A
$$

ABBREVIATIONS USED IN REMARKS
   TC - TEMPERATURES IN CELSIUS
  WCI - WIND CHILL INDEX
   HX - HEAT INDEX
  VSB - VISIBILITY
$$



USA.gov is the U.S. government's official web portal to all federal, state and local government web resources and services.